Time,TemperatureF,DewpointF,PressureIn,WindDirection,WindDirectionDegrees,WindSpeedMPH,WindSpeedGustMPH,Humidity,HourlyPrecipIn,Conditions,Clouds,dailyrainin,SoftwareType,DateUTC
2013-03-18 00:03:00,35.0,33.0,-100.00,ESE,119,2.0,4.0,94,0.06,,,0.82,,2013-03-18 04:03:00,
2013-03-18 00:13:00,35.0,33.0,-100.00,ESE,119,2.0,4.0,94,0.06,,,0.82,,2013-03-18 04:13:00,
2013-03-18 00:23:00,35.0,32.0,-100.00,SE,130,4.0,5.0,91,0.00,,,0.82,,2013-03-18 04:23:00,
2013-03-18 00:33:00,35.0,32.0,-100.00,SE,130,4.0,5.0,91,0.00,,,0.82,,2013-03-18 04:33:00,
2013-03-18 00:42:00,35.0,33.0,-100.00,SSE,151,4.0,6.0,92,0.00,,,0.83,,2013-03-18 04:42:00,
2013-03-18 00:53:00,34.0,32.0,-100.00,ESE,117,9.0,12.0,90,0.03,,,0.84,,2013-03-18 04:53:00,
2013-03-18 01:03:00,34.0,32.0,-100.00,ESE,117,9.0,12.0,90,0.03,,,0.84,,2013-03-18 05:03:00,
2013-03-18 01:12:00,34.0,32.0,-100.00,ESE,117,9.0,12.0,90,0.03,,,0.84,,2013-03-18 05:12:00,
2013-03-18 01:22:00,34.0,32.0,-100.00,SE,144,9.0,12.0,90,0.00,,,0.85,,2013-03-18 05:22:00,
2013-03-18 01:32:00,34.0,32.0,-100.00,SE,144,9.0,12.0,90,0.00,,,0.85,,2013-03-18 05:32:00,
2013-03-18 01:43:00,34.0,32.0,-100.00,SE,144,9.0,12.0,90,0.00,,,0.85,,2013-03-18 05:43:00,
2013-03-18 02:22:00,34.0,32.0,-100.00,SSE,155,6.0,8.0,91,0.00,,,0.86,,2013-03-18 06:22:00,
2013-03-18 02:32:00,34.0,32.0,-100.00,SSE,155,6.0,8.0,91,0.00,,,0.86,,2013-03-18 06:32:00,
2013-03-18 02:42:00,34.0,32.0,-100.00,SSE,147,7.0,9.0,92,0.00,,,0.86,,2013-03-18 06:42:00,
2013-03-18 02:53:00,34.0,32.0,-100.00,SSE,147,7.0,9.0,92,0.00,,,0.86,,2013-03-18 06:53:00,
2013-03-18 03:02:00,33.0,31.0,-100.00,SE,144,6.0,8.0,92,0.00,,,0.86,,2013-03-18 07:02:00,
2013-03-18 03:12:00,33.0,31.0,-100.00,SE,144,6.0,8.0,92,0.00,,,0.86,,2013-03-18 07:12:00,
2013-03-18 03:23:00,33.0,32.0,-100.00,SSE,168,3.0,4.0,94,0.00,,,0.86,,2013-03-18 07:23:00,
2013-03-18 03:33:00,33.0,32.0,-100.00,SSE,168,3.0,4.0,94,0.00,,,0.86,,2013-03-18 07:33:00,
2013-03-18 03:42:00,33.0,32.0,-100.00,SSE,151,3.0,4.0,94,0.03,,,0.87,,2013-03-18 07:42:00,
2013-03-18 03:53:00,33.0,32.0,-100.00,SE,126,2.0,3.0,95,0.00,,,0.87,,2013-03-18 07:53:00,
2013-03-18 04:02:00,33.0,32.0,-100.00,SE,126,2.0,3.0,95,0.00,,,0.87,,2013-03-18 08:02:00,
2013-03-18 04:12:00,33.0,32.0,-100.00,SE,126,2.0,3.0,95,0.00,,,0.87,,2013-03-18 08:12:00,
2013-03-18 04:22:00,33.0,32.0,-100.00,SE,134,4.0,5.0,95,0.00,,,0.88,,2013-03-18 08:22:00,
2013-03-18 04:32:00,33.0,32.0,-100.00,SE,134,4.0,5.0,95,0.00,,,0.88,,2013-03-18 08:32:00,
2013-03-18 04:43:00,33.0,32.0,-100.00,SE,134,4.0,5.0,95,0.00,,,0.88,,2013-03-18 08:43:00,
2013-03-18 04:53:00,33.0,32.0,-100.00,ENE,61,1.0,2.0,95,0.00,,,0.88,,2013-03-18 08:53:00,
2013-03-18 05:02:00,33.0,32.0,-100.00,ENE,75,1.0,2.0,95,0.00,,,0.88,,2013-03-18 09:02:00,
2013-03-18 05:13:00,33.0,32.0,-100.00,ENE,75,1.0,2.0,95,0.00,,,0.88,,2013-03-18 09:13:00,
2013-03-18 05:22:00,33.0,32.0,-100.00,ESE,103,2.0,5.0,95,0.00,,,0.88,,2013-03-18 09:22:00,
2013-03-18 05:33:00,33.0,32.0,-100.00,ESE,103,2.0,5.0,95,0.00,,,0.88,,2013-03-18 09:33:00,
2013-03-18 05:43:00,33.0,32.0,-100.00,ENE,64,1.0,2.0,95,0.01,,,0.88,,2013-03-18 09:43:00,
2013-03-18 05:53:00,33.0,31.0,-100.00,ENE,62,2.0,3.0,96,0.01,,,0.88,,2013-03-18 09:53:00,
2013-03-18 06:04:00,33.0,31.0,-100.00,ENE,62,2.0,3.0,96,0.01,,,0.88,,2013-03-18 10:04:00,
2013-03-18 06:13:00,33.0,31.0,-100.00,ENE,62,2.0,3.0,96,0.01,,,0.88,,2013-03-18 10:13:00,
2013-03-18 06:23:00,32.0,31.0,-100.00,NE,49,1.0,2.0,96,0.00,,,0.90,,2013-03-18 10:23:00,
2013-03-18 06:33:00,32.0,31.0,-100.00,NE,49,3.0,4.0,96,0.00,,,0.91,,2013-03-18 10:33:00,
2013-03-18 06:42:00,32.0,31.0,-100.00,NE,49,3.0,4.0,96,0.00,,,0.91,,2013-03-18 10:42:00,
2013-03-18 06:53:00,32.0,31.0,-100.00,NE,49,3.0,4.0,96,0.00,,,0.91,,2013-03-18 10:53:00,
2013-03-18 07:03:00,32.0,31.0,-100.00,ENE,66,3.0,4.0,96,0.00,,,0.91,,2013-03-18 11:03:00,
2013-03-18 07:13:00,32.0,31.0,-100.00,ENE,66,3.0,4.0,96,0.00,,,0.91,,2013-03-18 11:13:00,
2013-03-18 07:22:00,32.0,31.0,-100.00,ENE,69,2.0,4.0,96,0.01,,,0.91,,2013-03-18 11:22:00,
2013-03-18 07:32:00,32.0,31.0,-100.00,ENE,69,2.0,4.0,96,0.01,,,0.91,,2013-03-18 11:32:00,
2013-03-18 07:42:00,32.0,31.0,-100.00,ENE,58,3.0,4.0,97,0.03,,,0.91,,2013-03-18 11:42:00,
2013-03-18 07:53:00,32.0,31.0,-100.00,ENE,58,3.0,4.0,97,0.03,,,0.91,,2013-03-18 11:53:00,
2013-03-18 08:03:00,32.0,31.0,-100.00,SE,133,2.0,3.0,97,0.04,,,0.89,,2013-03-18 12:03:00,
2013-03-18 08:13:00,32.0,31.0,-100.00,SE,133,2.0,3.0,97,0.04,,,0.89,,2013-03-18 12:13:00,
2013-03-18 08:22:00,32.0,31.0,-100.00,SE,133,2.0,3.0,97,0.04,,,0.89,,2013-03-18 12:22:00,
2013-03-18 08:33:00,32.0,31.0,-100.00,ESE,102,3.0,4.0,97,0.00,,,0.90,,2013-03-18 12:33:00,
2013-03-18 08:43:00,32.0,31.0,-100.00,ESE,102,3.0,4.0,97,0.00,,,0.90,,2013-03-18 12:43:00,
2013-03-18 08:52:00,32.0,31.0,-100.00,ESE,102,3.0,4.0,97,0.00,,,0.90,,2013-03-18 12:52:00,
2013-03-18 09:03:00,32.0,31.0,-100.00,ENE,58,2.0,3.0,97,0.00,,,0.92,,2013-03-18 13:03:00,
2013-03-18 09:12:00,32.0,31.0,-100.00,ENE,58,2.0,3.0,97,0.00,,,0.92,,2013-03-18 13:12:00,
2013-03-18 09:22:00,32.0,31.0,-100.00,ENE,58,2.0,3.0,97,0.00,,,0.92,,2013-03-18 13:22:00,
2013-03-18 09:33:00,31.0,30.0,-100.00,SSE,148,7.0,8.0,96,0.00,,,0.79,,2013-03-18 13:33:00,
2013-03-18 09:42:00,31.0,30.0,-100.00,SSE,148,7.0,8.0,96,0.00,,,0.79,,2013-03-18 13:42:00,
2013-03-18 09:52:00,31.0,30.0,-100.00,SSE,148,4.0,6.0,96,0.00,,,0.71,,2013-03-18 13:52:00,
2013-03-18 10:03:00,31.0,30.0,-100.00,SSE,148,4.0,6.0,96,0.00,,,0.71,,2013-03-18 14:03:00,
2013-03-18 10:12:00,31.0,30.0,-100.00,SSE,148,4.0,6.0,96,0.00,,,0.71,,2013-03-18 14:12:00,
2013-03-18 10:22:00,31.0,30.0,-100.00,SE,140,6.0,9.0,95,0.00,,,0.69,,2013-03-18 14:22:00,
2013-03-18 10:32:00,31.0,30.0,-100.00,SE,140,6.0,9.0,95,0.00,,,0.69,,2013-03-18 14:32:00,
2013-03-18 10:42:00,31.0,30.0,-100.00,SSE,157,6.0,8.0,95,0.00,,,0.67,,2013-03-18 14:42:00,
2013-03-18 10:52:00,31.0,30.0,-100.00,SSE,157,6.0,8.0,95,0.00,,,0.67,,2013-03-18 14:52:00,
2013-03-18 11:02:00,31.0,30.0,-100.00,SSE,154,6.0,9.0,94,0.00,,,0.66,,2013-03-18 15:02:00,
2013-03-18 11:12:00,31.0,30.0,-100.00,SSE,154,6.0,9.0,94,0.00,,,0.66,,2013-03-18 15:12:00,
2013-03-18 11:22:00,31.0,29.0,-100.00,SE,143,9.0,12.0,92,0.00,,,0.66,,2013-03-18 15:22:00,
2013-03-18 11:33:00,31.0,29.0,-100.00,SE,143,9.0,12.0,92,0.00,,,0.66,,2013-03-18 15:33:00,
2013-03-18 11:43:00,31.0,29.0,-100.00,SE,140,9.0,13.0,92,0.00,,,0.65,,2013-03-18 15:43:00,
2013-03-18 11:52:00,31.0,29.0,-100.00,SE,140,9.0,13.0,92,0.00,,,0.65,,2013-03-18 15:52:00,
2013-03-18 12:03:00,31.0,29.0,-100.00,ESE,119,7.0,11.0,92,0.00,,,0.65,,2013-03-18 16:03:00,
2013-03-18 12:12:00,31.0,29.0,-100.00,ESE,119,7.0,11.0,92,0.00,,,0.65,,2013-03-18 16:12:00,
2013-03-18 12:23:00,31.0,30.0,-100.00,ESE,113,4.0,6.0,93,0.00,,,0.65,,2013-03-18 16:23:00,
2013-03-18 12:33:00,31.0,30.0,-100.00,ESE,113,4.0,6.0,93,0.00,,,0.65,,2013-03-18 16:33:00,
2013-03-18 12:42:00,32.0,30.0,-100.00,SE,137,8.0,10.0,93,0.00,,,0.65,,2013-03-18 16:42:00,
2013-03-18 12:52:00,32.0,30.0,-100.00,SE,137,8.0,10.0,93,0.00,,,0.65,,2013-03-18 16:52:00,
2013-03-18 13:03:00,32.0,30.0,-100.00,SSE,150,5.0,8.0,93,0.00,,,0.65,,2013-03-18 17:03:00,
2013-03-18 13:12:00,32.0,30.0,-100.00,SSE,150,5.0,8.0,93,0.00,,,0.65,,2013-03-18 17:12:00,
2013-03-18 13:22:00,32.0,30.0,-100.00,SSE,150,5.0,8.0,93,0.00,,,0.65,,2013-03-18 17:22:00,
2013-03-18 13:33:00,32.0,30.0,-100.00,SSE,151,10.0,15.0,92,0.00,,,0.65,,2013-03-18 17:33:00,
2013-03-18 13:42:00,32.0,30.0,-100.00,SSE,158,6.0,8.0,91,0.00,,,0.65,,2013-03-18 17:42:00,
2013-03-18 13:52:00,32.0,30.0,-100.00,SSE,158,6.0,8.0,91,0.00,,,0.65,,2013-03-18 17:52:00,
2013-03-18 14:02:00,32.0,30.0,-100.00,South,176,5.0,7.0,92,0.00,,,0.65,,2013-03-18 18:02:00,
2013-03-18 14:12:00,32.0,30.0,-100.00,South,176,5.0,7.0,92,0.00,,,0.65,,2013-03-18 18:12:00,
2013-03-18 14:22:00,32.0,30.0,-100.00,South,176,5.0,7.0,92,0.00,,,0.65,,2013-03-18 18:22:00,
2013-03-18 14:32:00,32.0,30.0,-100.00,South,171,7.0,8.0,92,0.00,,,0.65,,2013-03-18 18:32:00,
2013-03-18 14:42:00,32.0,30.0,-100.00,SE,143,7.0,9.0,93,0.00,,,0.65,,2013-03-18 18:42:00,
2013-03-18 14:52:00,32.0,30.0,-100.00,SE,143,7.0,9.0,93,0.00,,,0.65,,2013-03-18 18:52:00,
2013-03-18 15:03:00,32.0,31.0,-100.00,ESE,116,2.0,3.0,93,0.00,,,0.65,,2013-03-18 19:03:00,
2013-03-18 15:12:00,32.0,31.0,-100.00,ESE,116,2.0,3.0,93,0.00,,,0.65,,2013-03-18 19:12:00,
2013-03-18 15:22:00,32.0,31.0,-100.00,SSE,157,3.0,5.0,94,0.00,,,0.65,,2013-03-18 19:22:00,
2013-03-18 15:33:00,32.0,31.0,-100.00,SSE,157,3.0,5.0,94,0.00,,,0.65,,2013-03-18 19:33:00,
2013-03-18 15:42:00,32.0,31.0,-100.00,SSE,157,5.0,7.0,94,0.00,,,0.65,,2013-03-18 19:42:00,
2013-03-18 15:52:00,32.0,31.0,-100.00,SSE,157,5.0,7.0,94,0.00,,,0.65,,2013-03-18 19:52:00,
2013-03-18 16:03:00,33.0,31.0,-100.00,South,174,5.0,7.0,93,0.00,,,0.65,,2013-03-18 20:03:00,
2013-03-18 16:12:00,33.0,31.0,-100.00,South,174,5.0,7.0,93,0.00,,,0.65,,2013-03-18 20:12:00,
2013-03-18 16:23:00,33.0,31.0,-100.00,South,185,3.0,5.0,93,0.00,,,0.65,,2013-03-18 20:23:00,
2013-03-18 16:33:00,33.0,31.0,-100.00,South,185,3.0,5.0,93,0.00,,,0.65,,2013-03-18 20:33:00,
2013-03-18 16:42:00,33.0,31.0,-100.00,South,169,4.0,5.0,93,0.00,,,0.66,,2013-03-18 20:42:00,
2013-03-18 16:50:00,32.0,31.0,-100.00,NNE,13,3.0,4.0,95,0.13,,,0.76,,2013-03-18 20:50:00,
2013-03-18 16:53:00,32.0,31.0,-100.00,NE,54,3.0,4.0,95,0.06,,,0.70,,2013-03-18 20:53:00,
2013-03-18 17:02:00,32.0,31.0,-100.00,NE,54,3.0,4.0,95,0.06,,,0.70,,2013-03-18 21:02:00,
2013-03-18 17:12:00,32.0,31.0,-100.00,NE,54,3.0,4.0,95,0.06,,,0.70,,2013-03-18 21:12:00,
2013-03-18 17:22:00,32.0,31.0,-100.00,NNE,13,3.0,4.0,95,0.13,,,0.76,,2013-03-18 21:22:00,
2013-03-18 17:33:00,32.0,31.0,-100.00,NNE,13,3.0,4.0,95,0.13,,,0.76,,2013-03-18 21:33:00,
2013-03-18 17:43:00,32.0,31.0,-100.00,NNE,13,3.0,4.0,95,0.13,,,0.76,,2013-03-18 21:43:00,
2013-03-18 18:03:00,32.0,31.0,-100.00,ENE,73,3.0,3.0,95,0.11,,,0.96,,2013-03-18 22:03:00,
2013-03-18 18:13:00,32.0,31.0,-100.00,ENE,73,3.0,3.0,95,0.11,,,0.96,,2013-03-18 22:13:00,
2013-03-18 18:23:00,32.0,31.0,-100.00,East,97,2.0,3.0,95,0.04,,,0.98,,2013-03-18 22:23:00,
2013-03-18 18:33:00,32.0,31.0,-100.00,East,97,2.0,3.0,95,0.04,,,0.98,,2013-03-18 22:33:00,
2013-03-18 18:42:00,32.0,31.0,-100.00,SE,134,2.0,3.0,95,0.17,,,1.01,,2013-03-18 22:42:00,
2013-03-18 18:52:00,32.0,31.0,-100.00,SSE,160,2.0,3.0,95,0.26,,,1.07,,2013-03-18 22:52:00,
2013-03-18 19:03:00,32.0,31.0,-100.00,SSE,160,2.0,3.0,95,0.26,,,1.07,,2013-03-18 23:03:00,
2013-03-18 19:13:00,32.0,31.0,-100.00,SSE,160,2.0,3.0,95,0.26,,,1.07,,2013-03-18 23:13:00,
2013-03-18 19:23:00,33.0,31.0,-100.00,South,185,4.0,5.0,95,0.27,,,1.13,,2013-03-18 23:23:00,
2013-03-18 19:33:00,33.0,31.0,-100.00,South,185,4.0,5.0,95,0.27,,,1.13,,2013-03-18 23:33:00,
2013-03-18 19:42:00,33.0,31.0,-100.00,South,182,4.0,5.0,96,0.00,,,1.15,,2013-03-18 23:42:00,
2013-03-18 19:53:00,33.0,31.0,-100.00,South,182,4.0,5.0,96,0.00,,,1.15,,2013-03-18 23:53:00,
2013-03-18 20:03:00,32.0,31.0,-100.00,SSE,164,4.0,5.0,96,0.00,,,1.15,,2013-03-19 00:03:00,
2013-03-18 20:12:00,32.0,31.0,-100.00,SSE,164,4.0,5.0,96,0.00,,,1.15,,2013-03-19 00:12:00,
2013-03-18 20:23:00,33.0,31.0,-100.00,SSW,198,4.0,5.0,96,0.00,,,1.15,,2013-03-19 00:23:00,
2013-03-18 20:32:00,33.0,31.0,-100.00,SSW,198,4.0,5.0,96,0.00,,,1.15,,2013-03-19 00:32:00,
2013-03-18 20:42:00,32.0,31.0,-100.00,SSE,168,6.0,7.0,96,0.00,,,1.13,,2013-03-19 00:42:00,
2013-03-18 20:52:00,32.0,31.0,-100.00,SSE,168,6.0,7.0,96,0.00,,,1.13,,2013-03-19 00:52:00,
2013-03-18 21:02:00,32.0,31.0,-100.00,SSE,158,6.0,7.0,96,0.00,,,1.10,,2013-03-19 01:02:00,
2013-03-18 21:12:00,32.0,31.0,-100.00,SSE,158,6.0,7.0,96,0.00,,,1.10,,2013-03-19 01:12:00,
2013-03-18 21:23:00,32.0,31.0,-100.00,SSE,158,6.0,7.0,96,0.00,,,1.10,,2013-03-19 01:23:00,
2013-03-18 21:33:00,32.0,31.0,-100.00,South,181,8.0,10.0,96,0.00,,,1.03,,2013-03-19 01:33:00,
2013-03-18 21:43:00,32.0,31.0,-100.00,WNW,301,5.0,8.0,96,0.00,,,0.98,,2013-03-19 01:43:00,
2013-03-18 21:52:00,32.0,31.0,-100.00,WNW,301,5.0,8.0,96,0.00,,,0.98,,2013-03-19 01:52:00,
2013-03-18 22:03:00,32.0,31.0,-100.00,SSW,202,3.0,5.0,95,0.00,,,0.93,,2013-03-19 02:03:00,
2013-03-18 22:13:00,32.0,31.0,-100.00,SSW,202,3.0,5.0,95,0.00,,,0.93,,2013-03-19 02:13:00,
2013-03-18 22:23:00,32.0,31.0,-100.00,SSW,193,5.0,7.0,95,0.00,,,0.88,,2013-03-19 02:23:00,
2013-03-18 22:33:00,32.0,31.0,-100.00,SSW,193,5.0,7.0,95,0.00,,,0.88,,2013-03-19 02:33:00,
2013-03-18 22:43:00,32.0,31.0,-100.00,SSE,162,6.0,7.0,96,0.00,,,0.82,,2013-03-19 02:43:00,
2013-03-18 22:53:00,32.0,31.0,-100.00,SSE,162,6.0,7.0,96,0.00,,,0.82,,2013-03-19 02:53:00,
2013-03-18 23:02:00,32.0,31.0,-100.00,South,171,6.0,8.0,96,0.00,,,0.79,,2013-03-19 03:02:00,
2013-03-18 23:12:00,32.0,31.0,-100.00,South,171,6.0,8.0,96,0.00,,,0.79,,2013-03-19 03:12:00,
2013-03-18 23:22:00,32.0,31.0,-100.00,South,171,6.0,8.0,96,0.00,,,0.79,,2013-03-19 03:22:00,
2013-03-18 23:33:00,32.0,31.0,-100.00,SSW,200,3.0,6.0,96,0.00,,,0.74,,2013-03-19 03:33:00,
2013-03-18 23:43:00,32.0,31.0,-100.00,South,191,4.0,6.0,96,0.00,,,0.69,,2013-03-19 03:43:00,
2013-03-18 23:53:00,32.0,31.0,-100.00,South,191,4.0,6.0,96,0.00,,,0.69,,2013-03-19 03:53:00,